Weather in Fyrkal

Russia / Republic of Khakassia     54°37′58″N   89°48′39″E
temp.,
°C
wind,
m/s
gust,
m/s
humid.,
%
clouds,
%
prec.,
mm/h
press.,
hPa
HPBL,
m
24 july, sat
sat2401:00+17nnw1169100 0.0 100612
04:00+16nnw2273100 0.0 100525
07:00+17nw117675 0.3 100678
10:00+22ssw015921 0.0 1006386
13:00+24ene2156100 0.0 1005437
16:00+24ne445663 0.3 1005520
19:00+24ne126296 0.3 1006354
22:00+20wnw1173100 0.0 100611
25 july, sun
sun2501:00+18nw118170 0.0 100711
04:00+16wnw1187100 0.0 100611
07:00+19wnw117951 0.0 100769
10:00+23nnw236195 0.0 1006583
13:00+27n334942 0.0 10051280
16:00+27nne444542 0.0 10051435
19:00+25nne2355100 0.0 1005295
22:00+20w1165100 0.0 100511
26 july, mon
mon2601:00+18wsw117228 0.0 100411
04:00+17wsw1180100 0.0 100411
07:00+19sw1178100 0.0 100481
10:00+24wsw126293 0.0 1003537
13:00+27ssw1350100 0.2 10011611
16:00+26sse3352100 0.0 10011223
19:00+24sse116382 0.0 100120
22:00+20ssw2172100 0.0 100012
27 july, tue
tue2701:00+18sw2276100 0.0 100017
04:00+17wsw31091100 1.6 1001294
07:00+17wsw3885100 1.7 1003326
10:00+18w4673100 0.3 10041001
13:00+19w6864100 0.7 10061344
16:00+20w674745 0.1 10071905
19:00+17wnw67539 0.1 10081593
22:00+11wnw22710 0.0 101010
28 july, wed
wed2801:00+9w11805 0.0 101110
04:00+8sw118594 0.0 101210
07:00+11nne0070100 0.0 101282
10:00+14ene115799 0.0 1012550
13:00+18e234338 0.0 10101868
16:00+18nne424494 0.0 10101667
19:00+15ese3558100 0.0 1010130
22:00+13ne116582 0.0 101111